Lapse_Rate
6.7 6.5 6.3 6.2 6.1 6.0 6.0 5.9 5.9 5.8 5.7 5.7 5.6 5.7 5.6 5.7 5.6 5.6 5.5 5.4 5.3 5.1 5.0 5.0 4.9 4.8 4.7 4.7 4.8 4.8 4.9 5.0 5.1 5.1 5.1 5.0 5.1 5.3 5.3 5.4 5.5 5.5 5.5
6.5 6.6 6.5 6.2 6.2 6.1 6.1 6.0 5.9 6.0 5.9 5.8 5.8 5.7 5.6 5.6 5.6 5.7 5.5 5.5 5.3 5.3 5.2 5.2 5.1 5.1 5.0 4.9 4.9 4.9 4.9 5.0 5.1 5.2 5.4 5.2 5.3 5.2 5.2 5.3 5.4 5.4 5.5
6.5 6.5 6.5 6.3 6.2 6.3 6.1 6.1 6.1 6.0 5.9 5.8 5.8 5.6 5.5 5.5 5.5 5.6 5.5 5.5 5.4 5.3 5.3 5.2 5.2 5.1 5.1 5.0 5.1 5.1 5.1 5.2 5.2 5.3 5.5 5.9 5.4 5.4 5.4 5.4 5.5 5.5 5.6
6.2 6.3 6.2 6.2 6.1 6.1 6.1 6.0 6.0 6.0 5.9 5.8 5.8 5.7 5.6 5.6 5.5 5.5 5.5 5.5 5.4 5.3 5.3 5.3 5.4 5.3 5.3 5.3 5.4 5.3 5.2 5.2 5.2 5.1 5.1 5.3 5.3 5.3 5.4 5.3 5.5 5.6 5.6
5.9 6.2 6.1 6.1 6.1 6.0 6.0 5.9 5.9 5.8 5.8 5.8 5.8 5.7 5.6 5.5 5.4 5.4 5.4 5.5 5.4 5.3 5.3 5.4 5.4 5.4 5.5 5.4 5.4 5.4 5.3 5.3 5.4 5.4 5.3 5.2 5.3 5.2 5.3 5.3 5.5 5.6 5.6
5.8 6.0 5.9 5.9 6.0 6.0 5.9 5.9 5.9 5.8 5.8 5.8 5.8 5.8 5.7 5.6 5.5 5.5 5.5 5.5 5.5 5.4 5.3 5.3 5.4 5.5 5.4 5.5 5.5 5.4 5.4 5.4 5.5 5.5 5.7 5.5 5.4 5.4 5.4 5.4 5.6 5.6 5.7
5.2 5.6 5.9 5.9 5.9 5.9 5.9 5.9 6.0 6.0 5.9 5.9 5.9 5.8 5.8 5.8 5.7 5.6 5.6 5.6 5.6 5.5 5.5 5.4 5.4 5.4 5.5 5.4 5.5 5.4 5.3 5.3 5.4 5.4 5.8 5.5 5.5 5.4 5.3 5.3 5.4 5.7 5.7
5.4 5.4 6.2 6.0 6.0 6.0 5.9 6.0 5.9 5.9 6.0 6.0 6.0 6.1 6.0 5.9 5.9 5.9 5.7 5.7 5.8 5.9 5.7 5.6 5.6 5.6 5.7 5.6 5.6 5.5 5.4 5.3 5.3 5.4 5.9 5.2 5.4 5.4 5.3 5.5 5.6 5.7 5.7
5.6 5.5 6.0 6.3 6.1 6.0 5.9 5.9 5.9 6.0 6.0 6.0 6.0 5.9 5.8 5.8 6.0 6.1 6.0 5.8 5.9 5.8 5.8 5.8 5.8 5.8 5.9 5.8 5.8 5.7 5.6 5.5 5.4 5.1 6.0 5.3 5.4 5.4 5.4 5.5 5.5 5.7 5.7
6.2 6.4 6.4 6.2 6.3 6.3 6.0 5.8 6.1 6.0 6.0 5.9 6.0 5.9 5.7 5.7 5.7 5.8 5.8 5.9 5.9 5.9 5.9 5.9 5.9 5.9 5.9 6.0 6.0 5.8 5.7 5.4 5.4 5.2 5.5 5.4 5.3 5.3 5.4 5.3 5.5 5.6 5.7
6.0 6.2 6.1 6.1 6.0 6.0 6.3 6.3 6.0 5.9 6.0 6.0 6.0 6.0 6.0 6.0 5.9 5.9 5.9 6.0 5.9 5.9 6.0 6.0 6.1 6.0 6.0 6.0 6.0 5.9 5.8 5.5 5.5 5.4 5.7 5.3 5.1 5.2 5.1 5.1 5.3 5.6 5.6
6.4 6.5 6.5 6.3 6.2 6.2 6.3 6.2 6.3 6.4 6.3 6.2 6.1 6.1 6.1 6.0 6.2 6.2 6.2 6.3 6.1 5.8 5.8 5.8 5.9 5.9 6.1 6.1 6.1 6.0 5.8 5.5 5.5 5.4 5.8 5.5 5.2 5.3 5.1 5.0 5.0 5.3 5.3
6.8 6.6 6.7 6.7 6.6 6.5 6.4 6.4 6.3 6.3 6.3 6.2 6.3 6.3 6.3 6.2 6.1 6.2 5.9 6.3 6.1 6.0 5.5 5.5 6.2 6.1 6.3 6.2 6.3 6.1 5.9 5.7 5.5 5.4 5.7 5.4 5.3 5.3 5.3 4.9 4.8 4.9 5.2
6.7 6.8 6.6 6.5 6.5 6.5 6.5 6.5 6.5 6.2 6.3 6.3 6.4 6.2 6.1 6.2 6.3 6.2 6.0 6.1 5.6 5.6 5.8 5.5 6.1 6.2 6.1 6.2 6.1 6.1 6.0 6.1 5.6 5.5 5.1 5.3 5.2 5.2 5.3 5.1 4.8 4.9 5.0
6.7 6.7 6.8 6.7 6.6 6.5 6.2 6.0 5.8 5.8 5.9 6.0 6.0 6.1 5.9 5.9 6.0 5.9 5.9 6.0 6.2 5.9 5.8 5.6 5.3 6.3 6.3 6.2 6.1 6.0 5.9 6.0 5.1 5.7 5.8 5.6 5.2 5.2 5.2 5.2 5.1 4.9 5.0
6.2 6.2 6.2 6.3 6.4 6.3 6.0 5.8 5.6 5.5 5.4 5.4 5.6 5.8 6.0 5.9 5.8 5.8 5.9 5.9 5.8 5.9 5.7 5.8 5.9 6.0 6.1 6.2 6.1 5.9 5.9 6.0 5.3 5.1 5.3 5.4 5.3 5.3 5.3 5.4 5.2 5.3 5.1
5.7 5.6 5.7 5.3 5.5 5.4 5.3 5.3 5.3 5.2 5.2 5.3 5.2 5.2 5.4 5.7 5.8 5.7 5.7 5.7 5.8 5.8 5.7 5.8 5.7 5.8 6.0 6.1 6.2 6.2 5.9 5.6 5.7 5.2 5.7 5.9 5.4 5.5 5.4 5.2 5.2 5.2 5.4
4.8 4.8 4.6 4.4 4.5 4.8 5.3 5.4 5.2 5.3 5.2 5.1 5.1 5.1 5.0 5.0 5.4 5.6 5.4 5.5 5.6 5.6 5.8 5.8 5.9 6.0 5.8 5.8 6.2 6.1 5.7 6.0 6.0 5.6 5.7 5.8 5.9 5.6 5.6 5.4 5.3 5.0 5.1
4.2 4.3 4.4 4.2 4.3 4.3 4.3 4.7 4.8 4.8 5.2 5.2 5.0 4.9 5.0 5.0 4.9 5.1 5.4 5.4 5.3 5.4 5.6 5.8 5.9 5.7 5.7 5.8 6.1 6.1 5.8 6.0 6.0 5.8 5.9 5.9 5.9 5.6 5.7 5.6 5.5 5.0 5.0
3.7 4.1 4.5 4.6 4.6 4.4 4.3 4.5 4.7 4.8 4.9 5.3 5.3 5.2 5.1 5.0 4.9 4.9 4.9 5.3 5.6 5.4 5.2 5.5 5.7 5.8 5.8 5.8 6.0 6.2 6.2 6.1 6.0 5.9 6.0 5.8 5.8 5.6 5.7 5.5 5.6 5.3 4.9
3.4 3.4 4.2 5.0 5.0 5.3 5.3 5.1 5.0 4.7 5.0 5.1 5.0 4.9 5.2 5.3 5.3 5.4 5.5 5.4 5.4 5.6 5.6 5.5 5.5 5.7 5.8 6.1 6.0 6.0 6.1 6.2 6.1 5.9 5.9 5.8 5.8 5.9 5.7 5.5 5.5 5.5 5.1
3.9 4.2 4.1 4.7 5.5 5.6 5.2 5.3 5.4 5.5 5.5 5.4 5.4 5.1 5.0 5.2 5.4 5.7 6.0 5.7 5.6 5.4 5.6 5.8 5.8 5.9 5.7 5.9 5.9 5.8 5.8 6.4 5.3 5.9 6.0 6.0 5.9 5.9 5.8 5.5 5.4 5.8 5.1
5.8 5.7 5.4 5.1 6.2 6.1 5.9 6.0 6.0 6.0 5.8 5.8 5.9 5.8 5.6 5.4 5.4 5.6 5.8 6.0 6.1 5.9 5.8 6.0 6.1 6.1 6.1 6.2 5.9 5.8 5.8 5.8 6.2 6.0 6.0 5.7 5.7 5.7 5.7 5.6 5.5 5.6 5.3
7.6 7.2 6.8 6.6 6.7 6.4 6.4 6.4 6.3 6.1 6.2 6.3 6.1 6.0 6.1 6.1 6.0 5.9 5.8 6.2 6.2 6.0 6.3 6.2 6.3 6.3 6.1 6.2 6.4 6.1 5.8 5.9 6.1 6.1 6.3 5.9 5.8 5.8 5.7 5.9 5.5 5.3 5.7
7.2 7.0 6.9 6.9 6.7 6.6 6.5 6.3 6.2 6.5 6.4 6.3 6.4 6.3 6.2 6.2 6.4 6.5 6.4 6.3 6.4 6.3 6.1 6.2 6.3 6.3 6.1 6.1 6.3 6.4 6.2 6.2 6.2 5.5 6.3 6.5 6.5 5.9 5.9 6.0 5.4 5.5 5.4
7.8 7.3 6.9 7.0 6.9 7.2 7.1 7.0 6.6 6.4 6.7 6.7 6.6 6.6 6.5 6.5 6.7 6.9 6.8 6.7 6.3 6.4 6.7 6.5 6.3 6.3 6.3 6.2 6.3 6.5 6.7 6.3 5.6 5.1 5.2 6.2 6.7 6.3 6.0 5.9 5.7 5.8 5.7
Wind_Speed
8 13 13 13 14 13 12 10 10 8 7 8 5 5 5 3 2 6 7 8 7 7 7 8 10 10 10 10 9 9 8 5 5 5 8 14 15 14 14 15 17 14 16
13 15 13 12 12 13 11 11 9 9 6 8 6 5 4 2 4 7 7 8 7 7 6 7 7 8 8 8 8 7 6 4 3 2 2 14 15 15 15 15 16 14 15
12 18 13 12 10 12 10 10 11 9 7 7 6 5 4 3 3 5 6 7 7 5 5 6 5 7 6 7 7 6 5 6 9 10 10 7 15 14 14 15 15 16 17
11 18 15 11 10 10 9 10 12 10 8 7 6 5 5 4 3 3 4 7 6 5 5 5 4 4 5 5 5 4 3 6 9 12 15 10 15 14 13 13 15 16 17
7 17 18 16 10 8 9 10 12 10 8 6 6 6 6 5 4 4 3 6 6 5 5 5 4 3 4 4 3 2 2 5 10 9 12 14 14 11 12 13 13 14 15
8 18 21 17 12 8 7 8 9 11 11 9 8 7 8 7 7 6 6 6 7 7 6 7 6 5 4 3 2 0 3 6 9 3 12 14 12 9 11 12 12 13 15
13 16 15 13 10 6 5 4 9 10 11 11 10 10 11 11 10 10 9 8 9 10 9 9 8 8 6 6 5 3 4 8 10 4 12 13 9 8 9 11 10 12 12
8 14 15 14 10 7 7 6 7 7 8 8 9 10 11 11 11 12 11 11 12 13 12 12 11 10 9 8 8 6 5 8 10 3 13 13 9 7 8 8 9 10 11
8 6 8 7 12 14 15 14 12 10 9 9 10 12 12 13 13 14 14 14 13 14 15 14 13 12 10 9 11 8 7 9 9 8 13 12 9 7 7 6 9 8 10
14 14 15 15 10 13 8 10 11 12 12 13 13 13 13 13 13 13 16 17 17 18 17 17 16 15 13 11 12 10 8 9 11 10 11 12 10 6 6 5 6 7 8
12 13 13 12 16 12 11 13 13 9 12 15 14 16 16 13 15 20 22 22 24 22 19 18 18 17 15 13 12 12 12 10 13 6 10 15 11 7 5 4 5 6 7
12 11 12 12 12 15 12 9 10 12 12 12 11 13 13 16 14 16 17 26 24 24 21 19 18 18 16 10 12 15 10 12 12 7 13 16 12 10 6 5 4 4 5
9 8 9 10 14 12 9 7 6 8 7 8 11 13 14 11 11 11 6 12 17 20 11 15 14 13 12 12 10 12 14 14 12 10 16 18 14 12 8 6 4 4 5
9 8 8 7 8 10 11 9 12 5 6 4 7 10 5 3 6 5 4 5 9 7 5 7 7 14 14 16 16 10 14 12 9 10 16 21 17 13 11 8 6 4 5
8 8 8 8 7 7 8 7 7 5 7 12 11 7 6 4 5 5 7 5 4 6 5 8 13 9 11 12 12 10 12 10 9 10 13 21 18 15 13 10 8 6 4
8 8 9 8 7 8 6 6 4 8 10 11 10 12 12 3 3 4 5 6 7 5 7 5 5 5 5 7 7 6 13 11 9 13 13 15 19 16 15 13 10 8 6
7 8 9 9 7 7 7 6 5 7 10 5 8 15 14 10 6 5 4 5 5 8 7 5 5 5 4 5 7 7 7 7 7 10 11 12 14 16 15 14 11 10 7
7 8 8 9 9 9 8 6 5 8 8 7 10 13 15 14 13 6 5 4 6 5 4 4 5 5 5 5 4 5 5 4 6 8 13 13 12 12 14 14 12 11 9
8 8 8 8 9 9 8 6 7 11 6 9 11 12 13 14 15 6 5 5 6 4 5 6 4 3 4 4 7 5 4 6 5 3 8 8 14 13 12 15 11 12 8
8 7 8 7 8 8 5 5 5 5 5 11 7 9 15 13 9 7 7 7 5 5 7 5 7 5 5 5 5 6 5 4 2 4 6 5 10 11 14 12 12 9 9
7 7 8 8 8 5 4 6 5 5 5 6 6 13 18 16 13 6 4 7 6 5 6 8 5 7 5 3 3 2 2 4 1 3 4 6 7 8 10 9 10 9 7
8 5 6 6 6 5 4 4 4 5 4 4 4 10 15 17 17 11 10 9 9 5 7 7 7 5 5 3 3 2 3 2 2 3 1 5 7 6 5 7 8 9 8
9 6 2 4 6 5 5 4 4 4 4 4 5 5 6 13 16 13 13 11 7 8 5 7 6 8 7 3 7 4 3 3 2 2 4 1 9 6 6 7 11 9 9
11 14 4 4 4 5 3 3 6 4 6 5 5 6 8 11 10 13 10 11 10 8 10 7 7 7 7 7 4 8 5 3 3 2 2 4 5 7 6 6 7 8 9
9 7 6 5 6 6 5 4 4 5 4 5 6 10 9 8 6 10 11 12 13 8 7 6 9 7 7 7 6 4 9 4 4 4 3 2 4 4 4 5 5 6 7
9 9 7 8 7 6 6 7 7 7 7 6 9 8 8 7 8 9 11 11 11 8 9 9 11 10 7 8 7 8 9 4 6 4 3 4 5 4 4 4 4 3 7
Wind_Direction
128 136 143 142 149 148 146 141 141 143 143 134 139 121 113 91 74 108 113 105 102 101 105 85 95 86 79 82 80 75 67 53 71 74 77 86 65 50 58 44 43 48 37
125 141 145 150 153 154 153 153 151 149 151 147 151 142 131 110 59 130 141 128 117 118 119 104 89 87 79 77 72 68 54 7 12 23 134 82 66 54 50 45 42 36 37
128 135 152 152 159 159 167 170 161 158 161 155 158 158 151 150 121 144 167 141 134 128 129 116 100 112 100 90 79 64 29 339 333 335 296 111 70 53 37 47 44 37 46
130 137 152 161 168 175 179 170 170 170 170 172 178 179 185 194 178 176 175 155 148 145 152 147 119 123 111 98 92 75 24 316 329 340 40 46 71 53 49 39 46 39 40
117 145 147 164 176 193 202 190 180 174 181 178 204 205 207 208 214 216 194 180 170 168 172 173 160 155 138 119 107 84 341 318 322 323 81 66 59 49 49 46 44 39 40
132 105 142 157 168 200 213 200 191 192 189 189 208 224 223 223 222 227 222 202 193 184 192 190 192 191 184 170 156 129 314 309 311 356 102 82 77 61 60 59 45 40 43
96 120 133 151 166 200 220 188 186 206 209 195 204 226 232 229 229 227 225 223 208 201 199 200 204 207 207 202 199 206 278 295 302 80 107 92 73 65 61 52 44 48 41
79 120 138 155 164 194 227 235 241 239 231 226 220 228 244 246 243 243 234 223 211 207 207 208 210 213 215 219 211 214 252 292 309 269 115 99 93 74 63 51 48 48 47
82 38 91 180 182 195 201 209 217 233 239 241 244 245 247 245 240 243 234 234 226 217 216 213 214 216 218 227 209 216 243 280 301 294 117 113 104 90 76 53 58 44 54
47 36 24 30 40 18 301 258 241 237 238 246 245 248 244 247 245 242 232 229 229 225 223 218 216 218 217 217 202 216 232 267 279 280 122 124 120 106 92 71 50 42 51
31 35 28 14 6 12 26 14 1 297 276 262 253 245 247 239 240 224 226 220 217 217 220 220 219 219 216 216 216 217 220 241 258 240 131 138 134 129 112 93 73 53 47
39 20 23 14 360 0 8 40 16 356 343 328 289 279 250 230 236 247 219 223 225 216 210 216 220 223 224 216 215 219 209 225 247 184 141 149 150 145 141 125 100 65 49
54 28 24 20 4 1 350 11 9 349 334 330 333 346 342 304 267 272 269 238 219 212 210 212 210 214 203 216 220 202 207 222 231 148 155 155 161 155 160 154 130 101 68
58 40 30 28 17 3 356 8 353 335 322 309 313 329 331 327 330 295 280 220 232 206 225 258 212 204 206 211 228 199 204 218 219 148 163 163 166 169 171 173 156 146 104
43 38 27 19 31 9 3 0 349 338 345 336 325 309 327 327 317 326 308 304 244 205 202 206 251 211 197 210 221 199 203 209 218 161 164 165 167 176 177 178 172 169 143
28 28 16 11 28 18 3 353 335 328 335 325 328 325 322 271 307 307 322 317 305 275 254 242 249 195 212 234 229 213 198 197 152 152 157 173 171 177 184 179 179 177 168
16 21 15 7 21 17 353 339 331 323 327 314 325 329 325 343 349 315 278 289 303 310 290 269 272 262 232 259 254 232 191 174 151 153 161 159 169 178 191 184 179 178 183
14 22 11 3 6 6 347 336 331 334 337 326 347 330 342 353 340 308 298 282 290 302 299 288 271 267 256 242 273 260 179 168 167 159 154 164 168 177 189 186 186 174 190
2 24 12 6 2 359 339 344 354 344 339 340 340 331 342 337 340 328 316 305 314 285 279 273 255 243 261 244 232 251 198 181 189 166 172 166 162 173 178 185 178 173 193
346 29 15 3 358 352 356 2 339 343 331 338 328 321 317 315 312 319 322 314 316 310 306 277 267 250 230 240 237 244 254 267 217 201 183 169 166 160 162 162 145 155 196
350 35 15 359 351 347 358 355 340 333 334 320 316 332 342 327 328 324 307 307 297 282 278 287 286 279 260 200 257 333 353 356 16 212 193 165 151 142 143 152 156 161 161
344 19 16 349 345 350 11 339 328 331 309 317 332 330 322 333 325 322 314 297 294 270 283 275 273 271 263 224 152 164 260 130 47 13 252 158 155 134 140 134 134 134 164
335 321 342 357 360 348 2 328 322 320 321 323 321 314 318 320 313 308 311 301 297 302 268 275 265 256 253 243 217 161 167 209 120 46 354 83 144 141 131 123 113 104 101
335 320 347 8 329 306 321 311 316 305 316 305 310 307 310 307 301 299 290 303 301 291 279 266 263 256 260 247 236 222 202 149 183 152 6 9 69 98 122 112 101 90 90
332 315 330 326 300 285 274 261 266 283 280 298 300 300 305 301 306 305 299 297 296 289 294 299 289 259 249 247 225 224 232 187 273 135 165 163 61 39 57 96 108 113 120
320 316 309 288 270 284 284 273 261 262 278 290 294 293 301 306 307 304 305 300 296 323 321 315 301 271 250 242 239 223 227 199 193 120 183 157 122 46 47 57 71 115 124